2023-10-06T00:01:00,pth,3.60
2023-10-06T00:03:00,pth,3.60
2023-10-06T00:05:00,pth,3.60
2023-10-06T00:06:00,pth,1.20
2023-10-06T00:07:00,pth,1.20
2023-10-06T00:08:00,pth,1.20
2023-10-06T00:10:00,pth,3.60
2023-10-06T00:11:00,pth,1.20
2023-10-06T00:13:00,pth,2.40
2023-10-06T00:15:00,pth,3.60
2023-10-06T00:17:00,pth,2.40
2023-10-06T00:19:00,pth,3.60
2023-10-06T00:21:00,pth,2.40
2023-10-06T00:22:00,pth,1.20
2023-10-06T00:24:00,pth,2.40
2023-10-06T00:25:00,pth,2.40
2023-10-06T00:26:00,pth,1.20
2023-10-06T00:27:00,pth,1.20
2023-10-06T00:29:00,pth,3.60
2023-10-06T00:31:00,pth,2.40
2023-10-06T00:32:00,pth,1.20
2023-10-06T00:34:00,pth,2.40
2023-10-06T00:36:00,pth,3.60
2023-10-06T00:37:00,pth,1.20
2023-10-06T00:39:00,pth,2.40
2023-10-06T00:41:00,pth,3.60
2023-10-06T00:43:00,pth,2.40
2023-10-06T00:45:00,pth,2.40
2023-10-06T00:47:00,pth,2.40
2023-10-06T00:49:00,pth,2.40
2023-10-06T00:51:00,pth,2.40
2023-10-06T00:52:00,pth,1.20
2023-10-06T00:54:00,pth,3.60
2023-10-06T00:56:00,pth,2.40
2023-10-06T00:57:00,pth,1.20
2023-10-06T00:59:00,pth,3.60
2023-10-06T01:01:00,pth,2.40
2023-10-06T01:02:00,pth,1.20
2023-10-06T01:04:00,pth,2.40
2023-10-06T01:06:00,pth,3.60
2023-10-06T01:08:00,pth,2.40
2023-10-06T01:09:00,pth,1.20
2023-10-06T01:10:00,pth,3.60
2023-10-06T01:12:00,pth,1.20
2023-10-06T01:14:00,pth,2.40
2023-10-06T01:16:00,pth,3.60
2023-10-06T01:19:00,pth,3.60
2023-10-06T01:21:00,pth,2.40
2023-10-06T01:23:00,pth,2.40
2023-10-06T01:25:00,pth,3.60
2023-10-06T01:27:00,pth,2.40
2023-10-06T01:29:00,pth,3.60
2023-10-06T01:31:00,pth,2.40
2023-10-06T01:32:00,pth,1.20
2023-10-06T01:34:00,pth,3.60
2023-10-06T01:36:00,pth,2.40
2023-10-06T01:38:00,pth,3.60
2023-10-06T01:40:00,pth,2.40
2023-10-06T01:42:00,pth,3.60
2023-10-06T01:44:00,pth,2.40
2023-10-06T01:46:00,pth,2.40
2023-10-06T01:48:00,pth,3.60
2023-10-06T01:50:00,pth,3.60
2023-10-06T01:52:00,pth,2.40
2023-10-06T01:54:00,pth,2.40
2023-10-06T01:56:00,pth,2.40
2023-10-06T01:57:00,pth,1.20
2023-10-06T01:59:00,pth,2.40
2023-10-06T02:00:00,pth,2.40
2023-10-06T02:02:00,pth,2.40
2023-10-06T02:04:00,pth,3.60
2023-10-06T02:06:00,pth,2.40
2023-10-06T02:07:00,pth,2.40
2023-10-06T02:09:00,pth,2.40
2023-10-06T02:11:00,pth,4.80
2023-10-06T02:13:00,pth,2.40
2023-10-06T02:15:00,pth,3.60
2023-10-06T02:16:00,pth,1.20
2023-10-06T02:18:00,pth,2.40
2023-10-06T02:20:00,pth,3.60
2023-10-06T02:22:00,pth,2.40
2023-10-06T02:24:00,pth,2.40
2023-10-06T02:26:00,pth,2.40
2023-10-06T02:27:00,pth,2.40
2023-10-06T02:29:00,pth,2.40
2023-10-06T02:31:00,pth,2.40
2023-10-06T02:32:00,pth,1.20
2023-10-06T02:34:00,pth,2.40
2023-10-06T02:36:00,pth,2.40
2023-10-06T02:37:00,pth,1.20
2023-10-06T02:39:00,pth,2.40
2023-10-06T02:40:00,pth,1.20
2023-10-06T02:42:00,pth,2.40
2023-10-06T02:44:00,pth,2.40
2023-10-06T02:45:00,pth,2.40
2023-10-06T02:48:00,pth,2.40
2023-10-06T02:50:00,pth,2.40
2023-10-06T02:51:00,pth,2.40
2023-10-06T02:53:00,pth,1.20
2023-10-06T02:55:00,pth,2.40
2023-10-06T02:57:00,pth,2.40
2023-10-06T02:59:00,pth,2.40
2023-10-06T03:01:00,pth,2.40
2023-10-06T03:03:00,pth,2.40
2023-10-06T03:05:00,pth,2.40
2023-10-06T03:06:00,pth,1.20
2023-10-06T03:08:00,pth,2.40
2023-10-06T03:09:00,pth,2.40
2023-10-06T03:11:00,pth,1.20
2023-10-06T03:12:00,pth,1.20
2023-10-06T03:14:00,pth,2.40
2023-10-06T03:15:00,pth,1.20
2023-10-06T03:17:00,pth,2.40
2023-10-06T03:19:00,pth,2.40
2023-10-06T03:21:00,pth,2.40
2023-10-06T03:22:00,pth,1.20
2023-10-06T03:24:00,pth,2.40
2023-10-06T03:26:00,pth,2.40
2023-10-06T03:27:00,pth,1.20
2023-10-06T03:29:00,pth,1.20
2023-10-06T03:31:00,pth,2.40
2023-10-06T03:32:00,pth,1.20
2023-10-06T03:34:00,pth,2.40
2023-10-06T03:36:00,pth,2.40
2023-10-06T03:38:00,pth,2.40
2023-10-06T03:40:00,pth,2.40
2023-10-06T03:42:00,pth,2.40
2023-10-06T03:43:00,pth,1.20
2023-10-06T03:45:00,pth,1.20
2023-10-06T03:46:00,pth,1.20
2023-10-06T03:47:00,pth,1.20
2023-10-06T03:49:00,pth,2.40
2023-10-06T03:51:00,pth,3.60
2023-10-06T03:52:00,pth,1.20
2023-10-06T03:54:00,pth,1.20
2023-10-06T03:55:00,pth,1.20
2023-10-06T03:57:00,pth,2.40
2023-10-06T03:58:00,pth,2.40
2023-10-06T04:00:00,pth,2.40
2023-10-06T04:01:00,pth,1.20
2023-10-06T04:02:00,pth,1.20
2023-10-06T04:04:00,pth,2.40
2023-10-06T04:05:00,pth,1.20
2023-10-06T04:07:00,pth,2.40
2023-10-06T04:09:00,pth,2.40
2023-10-06T04:11:00,pth,3.60
2023-10-06T04:12:00,pth,1.20
2023-10-06T04:14:00,pth,2.40
2023-10-06T04:15:00,pth,1.20
2023-10-06T04:17:00,pth,2.40
2023-10-06T04:19:00,pth,3.60
2023-10-06T04:21:00,pth,2.40
2023-10-06T04:23:00,pth,2.40
2023-10-06T04:25:00,pth,2.40
2023-10-06T04:27:00,pth,2.40
2023-10-06T04:29:00,pth,2.40
2023-10-06T04:30:00,pth,1.20
2023-10-06T04:32:00,pth,2.40
2023-10-06T04:33:00,pth,1.20
2023-10-06T04:35:00,pth,2.40
2023-10-06T04:37:00,pth,2.40
2023-10-06T04:38:00,pth,1.20
2023-10-06T04:40:00,pth,2.40
2023-10-06T04:42:00,pth,2.40
2023-10-06T04:43:00,pth,1.20
2023-10-06T04:45:00,pth,2.40
2023-10-06T04:46:00,pth,1.20
2023-10-06T04:48:00,pth,2.40
2023-10-06T04:49:00,pth,1.20
2023-10-06T04:51:00,pth,2.40
2023-10-06T04:53:00,pth,2.40
2023-10-06T04:54:00,pth,1.20
2023-10-06T04:56:00,pth,2.40
2023-10-06T04:58:00,pth,2.40
2023-10-06T05:00:00,pth,1.20
2023-10-06T05:01:00,pth,1.20
2023-10-06T05:03:00,pth,2.40
2023-10-06T05:05:00,pth,2.40
2023-10-06T05:07:00,pth,2.40
2023-10-06T05:09:00,pth,2.40
2023-10-06T05:10:00,pth,1.20
2023-10-06T05:12:00,pth,2.40
2023-10-06T05:13:00,pth,1.20
2023-10-06T05:14:00,pth,1.20
2023-10-06T05:16:00,pth,2.40
2023-10-06T05:17:00,pth,1.20
2023-10-06T05:19:00,pth,2.40
2023-10-06T05:20:00,pth,2.40
2023-10-06T05:22:00,pth,2.40
2023-10-06T05:24:00,pth,1.20
2023-10-06T05:25:00,pth,1.20
2023-10-06T05:26:00,pth,1.20
2023-10-06T05:28:00,pth,3.60
2023-10-06T05:30:00,pth,2.40
2023-10-06T05:32:00,pth,2.40
2023-10-06T05:34:00,pth,2.40
2023-10-06T05:35:00,pth,1.20
2023-10-06T05:37:00,pth,2.40
2023-10-06T05:38:00,pth,1.20
2023-10-06T05:40:00,pth,2.40
2023-10-06T05:41:00,pth,1.20
2023-10-06T05:42:00,pth,1.20
2023-10-06T05:43:00,pth,1.20
2023-10-06T05:44:00,pth,1.20
2023-10-06T05:46:00,pth,2.40
2023-10-06T05:47:00,pth,1.20
2023-10-06T05:49:00,pth,2.40
2023-10-06T05:51:00,pth,2.40
2023-10-06T05:52:00,pth,1.20
2023-10-06T05:54:00,pth,2.40
2023-10-06T05:55:00,pth,2.40
2023-10-06T05:56:00,pth,1.20
2023-10-06T05:58:00,pth,2.40
2023-10-06T06:00:00,pth,2.40
2023-10-06T06:02:00,pth,2.40
2023-10-06T06:03:00,pth,1.20
2023-10-06T06:05:00,pth,2.40
2023-10-06T06:07:00,pth,2.40
2023-10-06T06:09:00,pth,3.60
2023-10-06T06:11:00,pth,2.40
2023-10-06T06:12:00,pth,1.20
2023-10-06T06:14:00,pth,2.40
2023-10-06T06:16:00,pth,2.40
2023-10-06T06:17:00,pth,1.20
2023-10-06T06:19:00,pth,3.60
2023-10-06T06:21:00,pth,2.40
2023-10-06T06:22:00,pth,1.20
2023-10-06T06:24:00,pth,2.40
2023-10-06T06:25:00,pth,1.20
2023-10-06T06:27:00,pth,2.40
2023-10-06T06:29:00,pth,2.40
2023-10-06T06:31:00,pth,2.40
2023-10-06T06:33:00,pth,2.40
2023-10-06T06:35:00,pth,2.40
2023-10-06T06:36:00,pth,1.20
2023-10-06T06:38:00,pth,2.40
2023-10-06T06:40:00,pth,2.40
2023-10-06T06:42:00,pth,2.40
2023-10-06T06:44:00,pth,2.40
2023-10-06T06:45:00,pth,1.20
2023-10-06T06:47:00,pth,2.40
2023-10-06T06:48:00,pth,1.20
2023-10-06T06:50:00,pth,2.40
2023-10-06T06:51:00,pth,1.20
2023-10-06T06:53:00,pth,2.40
2023-10-06T06:55:00,pth,2.40
2023-10-06T06:57:00,pth,2.40
2023-10-06T06:59:00,pth,2.40
2023-10-06T07:01:00,pth,2.40
2023-10-06T07:02:00,pth,1.20
2023-10-06T07:04:00,pth,2.40
2023-10-06T07:05:00,pth,1.20
2023-10-06T07:07:00,pth,2.40
2023-10-06T07:08:00,pth,1.20
2023-10-06T07:10:00,pth,2.40
2023-10-06T07:12:00,pth,2.40
2023-10-06T07:14:00,pth,2.40
2023-10-06T07:16:00,pth,2.40
2023-10-06T07:18:00,pth,2.40
2023-10-06T07:20:00,pth,2.40
2023-10-06T07:21:00,pth,1.20
2023-10-06T07:23:00,pth,2.40
2023-10-06T07:25:00,pth,3.60
2023-10-06T07:28:00,pth,2.40
2023-10-06T07:29:00,pth,1.20
2023-10-06T07:31:00,pth,2.40
2023-10-06T07:32:00,pth,1.20
2023-10-06T07:34:00,pth,1.20
2023-10-06T07:36:00,pth,2.40
2023-10-06T07:37:00,pth,1.20
2023-10-06T07:39:00,pth,3.60
2023-10-06T07:41:00,pth,2.40
2023-10-06T07:43:00,pth,2.40
2023-10-06T07:44:00,pth,1.20
2023-10-06T07:46:00,pth,2.40
2023-10-06T07:47:00,pth,1.20
2023-10-06T07:48:00,pth,1.20
2023-10-06T07:50:00,pth,2.40
2023-10-06T07:52:00,pth,1.20
2023-10-06T07:54:00,pth,2.40
2023-10-06T07:56:00,pth,2.40
2023-10-06T07:58:00,pth,2.40
2023-10-06T07:59:00,pth,1.20
2023-10-06T08:01:00,pth,2.40
2023-10-06T08:03:00,pth,2.40
2023-10-06T08:04:00,pth,1.20
2023-10-06T08:06:00,pth,2.40
2023-10-06T08:07:00,pth,1.20
2023-10-06T08:08:00,pth,1.20
2023-10-06T08:10:00,pth,2.40
2023-10-06T08:11:00,pth,1.20
2023-10-06T08:12:00,pth,1.20
2023-10-06T08:13:00,pth,1.20
2023-10-06T08:15:00,pth,1.20
2023-10-06T08:17:00,pth,2.40
2023-10-06T08:19:00,pth,3.60
2023-10-06T08:21:00,pth,2.40
2023-10-06T08:23:00,pth,2.40
2023-10-06T08:25:00,pth,2.40
2023-10-06T08:27:00,pth,2.40
2023-10-06T08:28:00,pth,1.20
2023-10-06T08:30:00,pth,4.80
2023-10-06T08:32:00,pth,3.60
2023-10-06T08:34:00,pth,2.40
2023-10-06T08:36:00,pth,3.60
2023-10-06T08:38:00,pth,2.40
2023-10-06T08:40:00,pth,2.40
2023-10-06T08:42:00,pth,2.40
2023-10-06T08:44:00,pth,2.40
2023-10-06T08:46:00,pth,2.40
2023-10-06T08:48:00,pth,2.40
2023-10-06T08:50:00,pth,2.40
2023-10-06T08:51:00,pth,1.20
2023-10-06T08:52:00,pth,2.40
2023-10-06T08:54:00,pth,3.60
2023-10-06T08:56:00,pth,3.60
2023-10-06T08:58:00,pth,3.60
2023-10-06T08:59:00,pth,1.20
2023-10-06T09:00:00,pth,2.40
2023-10-06T09:03:00,pth,2.40
2023-10-06T09:05:00,pth,1.20
2023-10-06T09:06:00,pth,1.20
2023-10-06T09:08:00,pth,2.40
2023-10-06T09:09:00,pth,1.20
2023-10-06T09:10:00,pth,1.20
2023-10-06T09:12:00,pth,2.40
2023-10-06T09:14:00,pth,1.20
2023-10-06T09:16:00,pth,2.40
2023-10-06T09:18:00,pth,1.20
2023-10-06T09:19:00,pth,1.20
2023-10-06T09:20:00,pth,2.40
2023-10-06T09:22:00,pth,2.40
2023-10-06T09:24:00,pth,2.40
2023-10-06T09:26:00,pth,2.40
2023-10-06T09:28:00,pth,2.40
2023-10-06T09:29:00,pth,1.20
2023-10-06T09:31:00,pth,1.20
2023-10-06T09:33:00,pth,2.40
2023-10-06T09:35:00,pth,2.40
2023-10-06T09:38:00,pth,2.40
2023-10-06T09:39:00,pth,1.20
2023-10-06T09:41:00,pth,2.40
2023-10-06T09:42:00,pth,1.20
2023-10-06T09:44:00,pth,2.40
2023-10-06T09:46:00,pth,1.20
2023-10-06T09:47:00,pth,1.20
2023-10-06T09:48:00,pth,1.20
2023-10-06T09:50:00,pth,2.40
2023-10-06T09:52:00,pth,1.20
2023-10-06T09:54:00,pth,2.40
2023-10-06T09:55:00,pth,1.20
2023-10-06T09:57:00,pth,2.40
2023-10-06T09:59:00,pth,2.40
2023-10-06T10:00:00,pth,1.20
2023-10-06T10:02:00,pth,2.40
2023-10-06T10:04:00,pth,2.40
2023-10-06T10:06:00,pth,1.20
2023-10-06T10:08:00,pth,2.40
2023-10-06T10:10:00,pth,1.20
2023-10-06T10:12:00,pth,2.40
2023-10-06T10:14:00,pth,1.20
2023-10-06T10:16:00,pth,2.40
2023-10-06T10:18:00,pth,1.20
2023-10-06T10:19:00,pth,1.20
2023-10-06T10:20:00,pth,1.20
2023-10-06T10:21:00,pth,1.20
2023-10-06T10:23:00,pth,1.20
2023-10-06T10:25:00,pth,2.40
2023-10-06T10:27:00,pth,2.40
2023-10-06T10:30:00,pth,2.40
2023-10-06T10:31:00,pth,1.20
2023-10-06T10:33:00,pth,2.40
2023-10-06T10:34:00,pth,1.20
2023-10-06T10:36:00,pth,1.20
2023-10-06T10:37:00,pth,1.20
2023-10-06T10:38:00,pth,2.40
2023-10-06T10:40:00,pth,1.20
2023-10-06T10:42:00,pth,2.40
2023-10-06T10:44:00,pth,1.20
2023-10-06T10:46:00,pth,2.40
2023-10-06T10:48:00,pth,2.40
2023-10-06T10:50:00,pth,1.20
2023-10-06T10:52:00,pth,2.40
2023-10-06T10:54:00,pth,2.40
2023-10-06T10:56:00,pth,2.40
2023-10-06T10:57:00,pth,1.20
2023-10-06T10:59:00,pth,2.40
2023-10-06T11:00:00,pth,1.20
2023-10-06T11:02:00,pth,2.40
2023-10-06T11:04:00,pth,2.40
2023-10-06T11:06:00,pth,2.40
2023-10-06T11:08:00,pth,3.60
2023-10-06T11:09:00,pth,1.20
2023-10-06T11:11:00,pth,3.60
2023-10-06T11:13:00,pth,3.60
2023-10-06T11:15:00,pth,2.40
2023-10-06T11:17:00,pth,2.40
2023-10-06T11:19:00,pth,2.40
2023-10-06T11:21:00,pth,2.40
2023-10-06T11:22:00,pth,1.20
2023-10-06T11:24:00,pth,2.40
2023-10-06T11:25:00,pth,1.20
2023-10-06T11:27:00,pth,2.40
2023-10-06T11:28:00,pth,1.20
2023-10-06T11:30:00,pth,2.40
2023-10-06T11:31:00,pth,1.20
2023-10-06T11:33:00,pth,2.40
2023-10-06T11:35:00,pth,2.40
2023-10-06T11:36:00,pth,1.20
2023-10-06T11:39:00,pth,2.40
2023-10-06T11:40:00,pth,1.20
2023-10-06T11:42:00,pth,2.40
2023-10-06T11:43:00,pth,1.20
2023-10-06T11:44:00,pth,1.20
2023-10-06T11:46:00,pth,2.40
2023-10-06T11:47:00,pth,1.20
2023-10-06T11:49:00,pth,1.20
2023-10-06T11:51:00,pth,3.60
2023-10-06T11:53:00,pth,3.60
2023-10-06T11:55:00,pth,3.60
2023-10-06T11:56:00,pth,1.20
2023-10-06T11:58:00,pth,3.60
2023-10-06T12:00:00,pth,2.40
2023-10-06T12:02:00,pth,3.60
2023-10-06T12:04:00,pth,2.40
2023-10-06T12:05:00,pth,1.20
2023-10-06T12:07:00,pth,2.40
2023-10-06T12:09:00,pth,2.40
2023-10-06T12:10:00,pth,1.20
2023-10-06T12:12:00,pth,2.40
2023-10-06T12:14:00,pth,2.40
2023-10-06T12:16:00,pth,2.40
2023-10-06T12:18:00,pth,2.40
2023-10-06T12:19:00,pth,1.20
2023-10-06T12:21:00,pth,2.40
2023-10-06T12:23:00,pth,4.80
2023-10-06T12:24:00,pth,6.00
2023-10-06T12:26:00,pth,13.20
2023-10-06T12:28:00,pth,13.20
2023-10-06T12:29:00,pth,7.20
2023-10-06T12:31:00,pth,13.20
2023-10-06T12:33:00,pth,13.20
2023-10-06T12:35:00,pth,14.40
2023-10-06T12:36:00,pth,7.20
2023-10-06T12:37:00,pth,6.00
2023-10-06T12:39:00,pth,14.40
2023-10-06T12:40:00,pth,6.00
2023-10-06T12:42:00,pth,13.20
2023-10-06T12:43:00,pth,7.20
2023-10-06T12:45:00,pth,13.20
2023-10-06T12:47:00,pth,13.20
2023-10-06T12:49:00,pth,13.20
2023-10-06T12:50:00,pth,7.20
2023-10-06T12:52:00,pth,13.20
2023-10-06T12:54:00,pth,14.40
2023-10-06T12:55:00,pth,6.00
2023-10-06T12:57:00,pth,14.40
2023-10-06T12:59:00,pth,13.20
2023-10-06T13:01:00,pth,13.20
2023-10-06T13:02:00,pth,7.20
2023-10-06T13:04:00,pth,13.20
2023-10-06T13:06:00,pth,13.20
2023-10-06T13:07:00,pth,6.00
2023-10-06T13:09:00,pth,18.00
2023-10-06T13:11:00,pth,1.20
2023-10-06T13:13:00,pth,9.60
2023-10-06T13:14:00,pth,6.00
2023-10-06T13:15:00,pth,12.00
2023-10-06T13:18:00,pth,2.40
2023-10-06T13:20:00,pth,12.00
2023-10-06T13:21:00,pth,10.80
2023-10-06T13:24:00,pth,3.60
2023-10-06T13:25:00,pth,1.20
2023-10-06T13:26:00,pth,2.40
2023-10-06T13:27:00,pth,1.20
2023-10-06T13:29:00,pth,2.40
2023-10-06T13:31:00,pth,2.40
2023-10-06T13:32:00,pth,1.20
2023-10-06T13:34:00,pth,2.40
2023-10-06T13:36:00,pth,2.40
2023-10-06T13:37:00,pth,1.20
2023-10-06T13:39:00,pth,3.60
2023-10-06T13:41:00,pth,2.40
2023-10-06T13:43:00,pth,2.40
2023-10-06T13:45:00,pth,2.40
2023-10-06T13:47:00,pth,3.60
2023-10-06T13:48:00,pth,1.20
2023-10-06T13:50:00,pth,3.60
2023-10-06T13:52:00,pth,2.40
2023-10-06T13:54:00,pth,3.60
2023-10-06T13:55:00,pth,1.20
2023-10-06T13:57:00,pth,3.60
2023-10-06T13:59:00,pth,3.60
2023-10-06T14:00:00,pth,1.20
2023-10-06T14:02:00,pth,2.40
2023-10-06T14:04:00,pth,3.60
2023-10-06T14:06:00,pth,2.40
2023-10-06T14:08:00,pth,3.60
2023-10-06T14:10:00,pth,3.60
2023-10-06T14:12:00,pth,2.40
2023-10-06T14:13:00,pth,2.40
2023-10-06T14:14:00,pth,4.80
2023-10-06T14:16:00,pth,7.20
2023-10-06T14:17:00,pth,4.80
2023-10-06T14:19:00,pth,7.20
2023-10-06T14:20:00,pth,4.80
2023-10-06T14:22:00,pth,7.20
2023-10-06T14:23:00,pth,4.80
2023-10-06T14:25:00,pth,4.80
2023-10-06T14:27:00,pth,2.40
2023-10-06T14:29:00,pth,4.80
2023-10-06T14:31:00,pth,8.40
2023-10-06T14:33:00,pth,4.80
2023-10-06T14:34:00,pth,1.20
2023-10-06T14:36:00,pth,6.00
2023-10-06T14:37:00,pth,4.80
2023-10-06T14:39:00,pth,3.60
2023-10-06T14:40:00,pth,1.20
2023-10-06T14:42:00,pth,6.00
2023-10-06T14:44:00,pth,7.20
2023-10-06T14:46:00,pth,3.60
2023-10-06T14:47:00,pth,1.20
2023-10-06T14:48:00,pth,9.60
2023-10-06T14:49:00,pth,8.40
2023-10-06T14:51:00,pth,18.00
2023-10-06T14:52:00,pth,6.00
2023-10-06T14:53:00,pth,7.20
2023-10-06T14:55:00,pth,15.60
2023-10-06T14:57:00,pth,18.00
2023-10-06T14:58:00,pth,8.40
2023-10-06T15:00:00,pth,13.20
2023-10-06T15:02:00,pth,16.80
2023-10-06T15:03:00,pth,9.60
2023-10-06T15:05:00,pth,15.60
2023-10-06T15:06:00,pth,7.20
2023-10-06T15:08:00,pth,24.00
2023-10-06T15:10:00,pth,9.60
2023-10-06T15:12:00,pth,14.40
2023-10-06T15:13:00,pth,7.20
2023-10-06T15:15:00,pth,14.40
2023-10-06T15:17:00,pth,18.00
2023-10-06T15:18:00,pth,8.40
2023-10-06T15:19:00,pth,6.00
2023-10-06T15:20:00,pth,7.20
2023-10-06T15:22:00,pth,16.80
2023-10-06T15:24:00,pth,16.80
2023-10-06T15:26:00,pth,16.80
2023-10-06T15:27:00,pth,7.20
2023-10-06T15:29:00,pth,13.20
2023-10-06T15:30:00,pth,3.60
2023-10-06T15:32:00,pth,3.60
2023-10-06T15:34:00,pth,13.20
2023-10-06T15:36:00,pth,9.60
2023-10-06T15:38:00,pth,3.60
2023-10-06T15:40:00,pth,8.40
2023-10-06T15:41:00,pth,7.20
2023-10-06T15:43:00,pth,4.80
2023-10-06T15:44:00,pth,1.20
2023-10-06T15:46:00,pth,8.40
2023-10-06T15:47:00,pth,1.20
2023-10-06T15:49:00,pth,2.40
2023-10-06T15:50:00,pth,1.20
2023-10-06T15:52:00,pth,2.40
2023-10-06T15:54:00,pth,1.20
2023-10-06T15:56:00,pth,2.40
2023-10-06T15:58:00,pth,2.40
2023-10-06T16:00:00,pth,2.40
2023-10-06T16:02:00,pth,2.40
2023-10-06T16:04:00,pth,2.40
2023-10-06T16:06:00,pth,2.40
2023-10-06T16:08:00,pth,2.40
2023-10-06T16:10:00,pth,3.60
2023-10-06T16:12:00,pth,2.40
2023-10-06T16:14:00,pth,3.60
2023-10-06T16:15:00,pth,2.40
2023-10-06T16:17:00,pth,3.60
2023-10-06T16:19:00,pth,3.60
2023-10-06T16:21:00,pth,3.60
2023-10-06T16:23:00,pth,2.40
2023-10-06T16:25:00,pth,3.60
2023-10-06T16:27:00,pth,2.40
2023-10-06T16:29:00,pth,3.60
2023-10-06T16:31:00,pth,2.40
2023-10-06T16:32:00,pth,2.40
2023-10-06T16:33:00,pth,1.20
2023-10-06T16:35:00,pth,2.40
2023-10-06T16:37:00,pth,2.40
2023-10-06T16:39:00,pth,3.60
2023-10-06T16:41:00,pth,2.40
2023-10-06T16:42:00,pth,1.20
2023-10-06T16:43:00,pth,2.40
2023-10-06T16:46:00,pth,2.40
2023-10-06T16:49:00,pth,2.40
2023-10-06T16:51:00,pth,2.40
2023-10-06T16:54:00,pth,2.40
2023-10-06T16:55:00,pth,1.20
2023-10-06T16:57:00,pth,1.20
2023-10-06T16:59:00,pth,2.40
2023-10-06T17:01:00,pth,1.20
2023-10-06T17:02:00,pth,1.20
2023-10-06T17:04:00,pth,2.40
2023-10-06T17:07:00,pth,2.40
2023-10-06T17:09:00,pth,2.40
2023-10-06T17:11:00,pth,1.20
2023-10-06T17:13:00,pth,2.40
2023-10-06T17:15:00,pth,2.40
2023-10-06T17:16:00,pth,1.20
2023-10-06T17:18:00,pth,2.40
2023-10-06T17:19:00,pth,1.20
2023-10-06T17:21:00,pth,2.40
2023-10-06T17:22:00,pth,1.20
2023-10-06T17:24:00,pth,2.40
2023-10-06T17:25:00,pth,1.20
2023-10-06T17:27:00,pth,2.40
2023-10-06T17:29:00,pth,3.60
2023-10-06T17:30:00,pth,1.20
2023-10-06T17:32:00,pth,2.40
2023-10-06T17:34:00,pth,2.40
2023-10-06T17:35:00,pth,1.20
2023-10-06T17:37:00,pth,3.60
2023-10-06T17:39:00,pth,2.40
2023-10-06T17:41:00,pth,2.40
2023-10-06T17:42:00,pth,1.20
2023-10-06T17:43:00,pth,1.20
2023-10-06T17:45:00,pth,2.40
2023-10-06T17:47:00,pth,2.40
2023-10-06T17:49:00,pth,2.40
2023-10-06T17:51:00,pth,2.40
2023-10-06T17:54:00,pth,2.40
2023-10-06T17:56:00,pth,2.40
2023-10-06T17:57:00,pth,1.20
2023-10-06T17:59:00,pth,2.40
2023-10-06T18:00:00,pth,1.20
2023-10-06T18:02:00,pth,2.40
2023-10-06T18:04:00,pth,2.40
2023-10-06T18:05:00,pth,1.20
2023-10-06T18:07:00,pth,3.60
2023-10-06T18:09:00,pth,3.60
2023-10-06T18:11:00,pth,3.60
2023-10-06T18:13:00,pth,2.40
2023-10-06T18:14:00,pth,1.20
2023-10-06T18:15:00,pth,1.20
2023-10-06T18:17:00,pth,2.40
2023-10-06T18:18:00,pth,2.40
2023-10-06T18:20:00,pth,2.40
2023-10-06T18:22:00,pth,3.60
2023-10-06T18:24:00,pth,3.60
2023-10-06T18:26:00,pth,2.40
2023-10-06T18:28:00,pth,3.60
2023-10-06T18:30:00,pth,2.40
2023-10-06T18:32:00,pth,3.60
2023-10-06T18:33:00,pth,1.20
2023-10-06T18:35:00,pth,2.40
2023-10-06T18:36:00,pth,1.20
2023-10-06T18:38:00,pth,3.60
2023-10-06T18:40:00,pth,2.40
2023-10-06T18:42:00,pth,3.60
2023-10-06T18:43:00,pth,1.20
2023-10-06T18:45:00,pth,2.40
2023-10-06T18:47:00,pth,2.40
2023-10-06T18:49:00,pth,2.40
2023-10-06T18:50:00,pth,1.20
2023-10-06T18:52:00,pth,3.60
2023-10-06T18:54:00,pth,2.40
2023-10-06T18:56:00,pth,3.60
2023-10-06T18:57:00,pth,1.20
2023-10-06T18:59:00,pth,2.40
2023-10-06T19:00:00,pth,1.20
2023-10-06T19:02:00,pth,3.60
2023-10-06T19:04:00,pth,2.40
2023-10-06T19:06:00,pth,2.40
2023-10-06T19:07:00,pth,2.40
2023-10-06T19:09:00,pth,2.40
2023-10-06T19:11:00,pth,3.60
2023-10-06T19:13:00,pth,2.40
2023-10-06T19:15:00,pth,4.80
2023-10-06T19:17:00,pth,2.40
2023-10-06T19:19:00,pth,3.60
2023-10-06T19:20:00,pth,1.20
2023-10-06T19:22:00,pth,2.40
2023-10-06T19:23:00,pth,1.20
2023-10-06T19:24:00,pth,2.40
2023-10-06T19:26:00,pth,2.40
2023-10-06T19:28:00,pth,3.60
2023-10-06T19:30:00,pth,3.60
2023-10-06T19:31:00,pth,1.20
2023-10-06T19:33:00,pth,3.60
2023-10-06T19:34:00,pth,2.40
2023-10-06T19:36:00,pth,2.40
2023-10-06T19:37:00,pth,2.40
2023-10-06T19:38:00,pth,1.20
2023-10-06T19:40:00,pth,2.40
2023-10-06T19:41:00,pth,1.20
2023-10-06T19:42:00,pth,2.40
2023-10-06T19:44:00,pth,2.40
2023-10-06T19:45:00,pth,1.20
2023-10-06T19:47:00,pth,2.40
2023-10-06T19:48:00,pth,2.40
2023-10-06T19:50:00,pth,2.40
2023-10-06T19:51:00,pth,1.20
2023-10-06T19:52:00,pth,1.20
2023-10-06T19:54:00,pth,3.60
2023-10-06T19:56:00,pth,2.40
2023-10-06T19:58:00,pth,3.60
2023-10-06T19:59:00,pth,1.20
2023-10-06T20:01:00,pth,2.40
2023-10-06T20:03:00,pth,3.60
2023-10-06T20:04:00,pth,1.20
2023-10-06T20:06:00,pth,3.60
2023-10-06T20:08:00,pth,2.40
2023-10-06T20:10:00,pth,2.40
2023-10-06T20:12:00,pth,3.60
2023-10-06T20:14:00,pth,2.40
2023-10-06T20:16:00,pth,2.40
2023-10-06T20:18:00,pth,3.60
2023-10-06T20:20:00,pth,2.40
2023-10-06T20:22:00,pth,2.40
2023-10-06T20:24:00,pth,3.60
2023-10-06T20:25:00,pth,1.20
2023-10-06T20:27:00,pth,2.40
2023-10-06T20:29:00,pth,3.60
2023-10-06T20:30:00,pth,1.20
2023-10-06T20:31:00,pth,1.20
2023-10-06T20:33:00,pth,3.60
2023-10-06T20:34:00,pth,1.20
2023-10-06T20:36:00,pth,3.60
2023-10-06T20:38:00,pth,3.60
2023-10-06T20:39:00,pth,1.20
2023-10-06T20:41:00,pth,3.60
2023-10-06T20:43:00,pth,2.40
2023-10-06T20:44:00,pth,2.40
2023-10-06T20:45:00,pth,1.20
2023-10-06T20:47:00,pth,3.60
2023-10-06T20:49:00,pth,2.40
2023-10-06T20:51:00,pth,3.60
2023-10-06T20:53:00,pth,2.40
2023-10-06T20:55:00,pth,3.60
2023-10-06T20:57:00,pth,2.40
2023-10-06T20:59:00,pth,2.40
2023-10-06T21:01:00,pth,2.40
2023-10-06T21:02:00,pth,1.20
2023-10-06T21:04:00,pth,3.60
